{"data":{"norad_id":67214,"intl_designator":"2025-304Y","name":"STARLINK-36203","alt_names":[],"object_type":"PAYLOAD","status":"ACTIVE","operator":null,"country":"US","launch_date":"2025-12-17","launch_site_code":"AFWTR","launch_vehicle":null,"mission":null,"orbit_class":"UNKNOWN","rcs_meters":null,"size_class":null,"mass_kg":null,"dimensions":null,"purposes":["comms"],"wikipedia_slug":null,"has_3d_model":false,"image_url":null,"decayed_at":null,"tle_current":{"epoch":"2026-05-24T22:51:47.460096Z","epoch_age_seconds":75972,"freshness":"FRESH","line1":"1 67214U 25304Y   26144.95263264  .00003512  00000+0  30188-3 0  9991","line2":"2 67214  70.0018 342.3480 0002744 264.4552  95.6294 14.98337276 25302","mean_motion":14.98337276,"eccentricity":0.0002744,"inclination_deg":70.0018,"raan_deg":342.348,"arg_perigee_deg":264.4552,"mean_anomaly_deg":95.6294,"bstar":0.00030188,"rev_number":2530,"period_min":96.106532425347,"perigee_km":570.12626385049,"apogee_km":573.94051736085,"semimajor_km":6950.1703906057,"source":"CELESTRAK","updated_at":"2026-05-25T13:38:21.512921Z"}}}